Regional Weather Roundup
Issued by NWS

Home | Current Version | Previous Version | Graphics & Text | Print | Product List | Glossary Off
Versions: 1 2 3 4 5 6 7 8 9 10 11 12 13 14 15 16 17 18 19 20 21 22 23 24 25 26 27 28 29 30 31 32 33 34 35 36 37 38 39 40 41 42 43 44 45 46 47 48 49 50

000
ASUS43 KTOP 040759
RWRKS

WEATHER ROUNDUP FOR KANSAS
NATIONAL WEATHER SERVICE GOODLAND KS
200 AM CST WED MAR 04 2015

NOTE:  "FAIR" INDICATES FEW OR NO CLOUDS BELOW 12,000 FEET WITH NO
SIGNIFICANT WEATHER AND/OR OBSTRUCTIONS TO VISIBILITY.

KSZ001>006-013>018-027>032-041>047-040900-
NORTHWEST KANSAS

CITY           SKY/WX    TMP DP  RH WIND       PRES   REMARKS
GOODLAND       CLOUDY    17  13  84 NE12      30.04R WCI   4
HAYS           CLOUDY    21   3  45 NE21G26   30.12R WCI   6
HILL CITY      CLOUDY    20  13  74 NE14      30.14R WCI   7
RUSSELL        CLOUDY    22   9  57 N21G29    30.11R WCI   6
$$

KSZ061>065-074>080-084>089-040900-
SOUTHWEST KANSAS

CITY           SKY/WX    TMP DP  RH WIND       PRES   REMARKS
DODGE CITY     CLOUDY    25   8  48 NE18G28   30.04R WCI  11
ELKHART          N/A     27  17  66 E14         N/A  WCI  16
GARDEN CITY    CLOUDY    23  10  57 NE20G28   30.02R WCI   8
GREAT BEND     CLOUDY    25   7  46 NE18      30.11R WCI  11
LIBERAL        CLOUDY    25  19  80 E9        30.01R
$$

KSZ066>073-081>083-090>101-040900-
SOUTHEAST KANSAS

CITY           SKY/WX    TMP DP  RH WIND       PRES   REMARKS
CHANUTE        CLOUDY    32  24  72 N14       30.02S WCI  22
COFFEYVILLE    CLOUDY    35  28  75 N17       30.00R WCI  25
HUTCHINSON     CLOUDY    27   8  44 N20G30    30.08R WCI  13
MEDICINE LODGE   N/A     28  18  66 N22G28    30.05R WCI  14
NEWTON         CLOUDY    27   7  43 N24G32    30.07S WCI  12
PARSONS        CLOUDY    34  28  79 N10       30.01R WCI  26
WICHITA INTL   FLURRIES  30  17  58 N18G26    30.06R WCI  18
WICHITA JABRA  FLURRIES  28  14  55 NE18G30   30.04S WCI  15
WICHITA MCCONL MIX PCPN  28  18  64 N18G26    30.04R WCI  16
WINFIELD       MOCLDY    32  22  66 N21       30.02R WCI  20
$$

KSZ007>012-019>026-033>040-048>060-102>105-040900-
NORTHEAST KANSAS

CITY           SKY/WX    TMP DP  RH WIND       PRES   REMARKS
CONCORDIA      CLOUDY    20   7  57 N21       30.17S WCI   4
EMPORIA        CLOUDY    25  12  58 N18G25    30.09R WCI  11
LAWRENCE       MOCLDY    23  10  57 N16G29    30.13R WCI  10
MANHATTAN      CLOUDY    22   7  52 N15G28    30.18R WCI   9
OLATHE IND     MOCLDY    25  15  66 N21       30.09R WCI  11
OLATHE EXE     MOCLDY    26  15  63 N18G24    30.06S WCI  13
SALINA         CLOUDY    25   8  48 N18G32    30.15R WCI  11
TOPEKA BILLARD CLOUDY    23   9  55 N21G29    30.16R WCI   8
TOPEKA FORBES  CLOUDY    24   8  50 N20G31    30.13R WCI  10
$$


USA.gov is the U.S. government's official web portal to all federal, state and local government web resources and services.